462  
ASUS44 KBMX 211410  
RWRAL  
 
ALABAMA REGIONAL WEATHER ROUNDUP  
NATIONAL WEATHER SERVICE BIRMINGHAM AL  
900 AM CDT SAT MAY 21 2022  
 
NOTE: "FAIR" INDICATES FEW OR NO CLOUDS BELOW 12,000 FEET  
WITH NO SIGNIFICANT WEATHER AND/OR S TO VISIBILITY
.  
 
THE REMARK "TC" DENOTES TEMPERATURE IN DEGREES CELSIUS.  
 
ALZ001>011-014-016>018-020-211500-  
NORTH ALABAMA  
 
CITY SKY/WX TMP DP RH WIND PRES REMARKS
 
MUSCLE SHOALS MOSUNNY 81 70 69 S8 30.05S  
HUNTSVILLE PTSUNNY 80 69 69 S13 30.08S  
DECATUR MOSUNNY 79 68 69 S13G21 30.08S  
HALEYVILLE PTSUNNY 77 70 79 S10G18 30.11R  
GADSDEN MOSUNNY 78 71 79 S6 30.12S  

 
 
ALZ012-013-022-023-030>036-040>044-211500-  
WEST CENTRAL ALABAMA  
 
CITY SKY/WX TMP DP RH WIND PRES REMARKS
 
TUSCALOOSA CLOUDY 80 72 76 S10 30.07R  
DEMOPOLIS CLOUDY 80 74 80 SE7 30.05R  

 
 
ALZ015-024>026-033>036-041>044-211500-  
CENTRAL ALABAMA  
 
CITY SKY/WX TMP DP RH WIND PRES REMARKS
 
BIRMINGHAM PTSUNNY 81 69 67 S9 30.12R  
MONTGOMERY CLOUDY 78 72 81 SE8 30.11R  
SHELBY CO ARPT CLOUDY 78 70 76 S7 30.10R  
MAXWELL AFB CLOUDY 75 72 88 SE8 30.10R  
GREENVILLE NOT AVBL  
SELMA CLOUDY 81 73 78 SE9 30.08R  
PRATTVILLE CLOUDY 73 73 100 SE3 30.10S FOG  
BESSEMER CLOUDY 77 71 82 VRB6 30.11S  
TALLADEGA FAIR N/A N/A N/A S6 30.12F  
PELL CITY PTSUNNY 77 70 78 VRB6 30.12R  
SYLACAUGA CLOUDY 77 71 81 SE3 30.12S  

 
 
ALZ019-021-028-029-037-038-045>048-211500-  
EAST CENTRAL ALABAMA  
 
CITY SKY/WX TMP DP RH WIND PRES REMARKS
 
ANNISTON MOSUNNY 77 70 79 VRB5 30.12S  
ALEXANDER CITY CLOUDY 73 73 99 CALM 30.13S FOG  
AUBURN CLOUDY 74 72 93 S10 30.17R  

 
 
ALZ051>064-211500-  
SOUTHWEST ALABAMA  
 
CITY SKY/WX TMP DP RH WIND PRES REMARKS
 
MOBILE MOSUNNY 83 75 77 SE15G23 30.06R HX 90  
BROOKLEY FIELD LGT RAIN 84 77 79 SE17G24 30.06R HX 94  
EVERGREEN PTSUNNY 80 73 79 S8 30.10R  

 
 
ALZ049-050-065>069-211500-  
SOUTHEAST ALABAMA  
 
CITY SKY/WX TMP DP RH WIND PRES REMARKS
 
DOTHAN PTSUNNY 80 74 81 S12 30.17R  
OZARK PTSUNNY 79 73 83 S10 30.12R  
TROY PTSUNNY 80 72 76 S8 30.13R  
EUFAULA NOT AVBL  

 
 
 
CLICK HERE TO GO TO PREVIOUS BULLETINS.

The Nexlab AL Page Main Text Page